User: anonymous   Login
Location: Caltech
(34.1382°N, 118.1253°W)
Time: 06:53:12
(UTC-07:00)
Language:

NOSS 3-4 (C) - Orbit

View from above orbital plane
View from above orbital plane
View from above satellite
View from above satellite

Ground track
Ground track

The orbit data is extracted from the following two-line orbital elements,

1 31708U 07027C   15144.93972427 0.00000000  00000-0  00000-0 0    06
2 31708  63.4030 205.8519 0132000  32.0036 327.9964 13.40680042    05
Epoch (UTC): 24 May 2015 22:33:12
Eccentricity: 0.0132000
inclination: 63.4030°
perigee height: 1008 km
apogee height: 1205 km
right ascension of ascending node: 205.8519°
argument of perigee: 32.0036°
revolutions per day: 13.40680042
mean anomaly at epoch: 327.9964°
orbit number at epoch: 0

The dashed part of the orbit path shows where the satellite is in the earth's shadow,  

DLR